Richmond, VA

8:04 AM EST on February 24, 2017 (GMT -0500)
Richmond International

Weather History for KRIC - August, 2013

Change the Weather History Date:

Sunday, August 18, 2013

  Actual Average Record
Temperature  
Mean Temperature 68 °F 78 °F  
Max Temperature 70 °F 88 °F 97 °F (2002)
Min Temperature 66 °F 67 °F 54 °F (1941)
Degree Days  
Heating Degree Days 0 0  
Month to date heating degree days 0 0  
Since 1 June heating degree days 0 7  
Since 1 July heating degree days 0 0  
Cooling Degree Days 3 12  
Month to date cooling degree days 201 238  
Year to date cooling degree days 1262 1157  
Since 1 June cooling degree days 1049 996  
Growing Degree Days 18 (Base 50)    
Moisture  
Dew Point 65 °F    
Average Humidity 90    
Maximum Humidity 93    
Minimum Humidity 87    
Precipitation  
Precipitation 0.54 in 0.16 in 5.58 in (1985)
Month to date precipitation 3.52 2.76  
Year to date precipitation 34.78 28.09  
Snow  
Snow 0.00 in 0.00 in 0.00 in (2002)
Month to date snowfall 0.0 0.0  
Since 1 July snowfall 0.0 0.0  
Snow Depth 0.00 in    
Sea Level Pressure  
Sea Level Pressure 30.19 in    
Wind  
Wind Speed 7 mph (NNE)    
Max Wind Speed 15 mph    
Max Gust Speed 17 mph    
Visibility 4 miles    
Events Rain    
T = Trace of Precipitation, MM = Missing Value Source: NWS Daily Summary

Daily Weather History Graph

Daily Weather History Graph

Search for Another Location

Airport or City:

Trip Planner

Search our weather history database for the weather conditions in past years. The results will help you decide how hot, cold, wet, or windy it might be!

Date:

Astronomy

Aug. 18, 2013 Rise Set
Actual Time 6:27 AM EDT 7:57 PM EDT
Civil Twilight 6:00 AM EDT 8:25 PM EDT
Nautical Twilight 5:27 AM EDT 8:58 PM EDT
Astronomical Twilight 4:52 AM EDT 9:32 PM EDT
Moon 6:00 PM EDT (8/18) 3:36 AM EDT (8/18)
Length of Visible Light 14h 24m
Length of Day
13h 29m
Waxing Gibbous, 92% of the Moon is Illuminated
Aug 18
Waxing Gibbous
Aug 20
Full
Aug 28
Last Quarter
Sep 5
New
Sep 12
First Quarter

Hourly Weather History & Observations

Time (EDT) Temp. Dew Point Humidity Pressure Visibility Wind Dir Wind Speed Gust Speed Precip Events Conditions
12:37 AM 69.8 °F 66.2 °F 88% 30.18 in 3.0 mi NE 8.1 mph - 0.07 in Rain Rain
12:54 AM 69.1 °F 66.0 °F 90% 30.19 in 6.0 mi NE 8.1 mph - 0.09 in Rain Light Rain
1:35 AM 69.8 °F 66.2 °F 88% 30.16 in 4.0 mi NE 8.1 mph - 0.05 in Rain Light Rain
1:54 AM 69.1 °F 66.9 °F 93% 30.17 in 8.0 mi NNE 8.1 mph - 0.06 in Rain Light Rain
2:54 AM 69.1 °F 66.9 °F 93% 30.16 in 8.0 mi NE 10.4 mph - 0.01 in Rain Light Rain
3:54 AM 69.1 °F 66.0 °F 90% 30.15 in 7.0 mi NNE 8.1 mph - 0.01 in Rain Light Rain
4:54 AM 68.0 °F 66.0 °F 93% 30.16 in 3.0 mi NNE 9.2 mph - 0.06 in Rain Light Rain
5:54 AM 68.0 °F 66.0 °F 93% 30.17 in 3.0 mi NNE 9.2 mph - 0.09 in Rain Light Rain
6:18 AM 68.0 °F 66.2 °F 94% 30.16 in 1.8 mi NNE 9.2 mph - 0.05 in Rain Heavy Rain
6:33 AM 68.0 °F 64.4 °F 88% 30.16 in 2.0 mi NNE 10.4 mph - 0.10 in Rain Light Rain
6:54 AM 68.0 °F 64.9 °F 90% 30.17 in 3.0 mi NNE 9.2 mph - 0.12 in Rain Light Rain
7:01 AM 66.2 °F 64.4 °F 94% 30.17 in 2.5 mi NNE 11.5 mph - 0.00 in Rain Light Rain
7:19 AM 66.2 °F 64.4 °F 94% 30.17 in 3.0 mi NNE 10.4 mph - 0.00 in   Overcast
7:54 AM 66.9 °F 64.9 °F 93% 30.19 in 2.0 mi North 11.5 mph - 0.02 in   Light Drizzle
8:40 AM 66.2 °F 64.4 °F 94% 30.19 in 3.0 mi North 8.1 mph - 0.05 in Rain Light Rain
8:54 AM 66.9 °F 64.9 °F 93% 30.20 in 6.0 mi North 9.2 mph - 0.05 in   Light Drizzle
9:54 AM 68.0 °F 64.9 °F 90% 30.20 in 2.0 mi North 6.9 mph - 0.01 in Rain Light Rain
10:27 AM 69.8 °F 66.2 °F 88% 30.19 in 3.0 mi North 6.9 mph - 0.02 in Rain Light Rain
10:54 AM 68.0 °F 66.0 °F 93% 30.21 in 2.0 mi North 6.9 mph - 0.03 in Rain Light Rain
11:24 AM 69.8 °F 66.2 °F 88% 30.20 in 3.0 mi North 8.1 mph - 0.01 in   Overcast
11:54 AM 69.1 °F 66.0 °F 90% 30.22 in 4.0 mi North 8.1 mph - 0.01 in   Light Drizzle
12:54 PM 69.1 °F 66.0 °F 90% 30.21 in 4.0 mi North 12.7 mph - 0.02 in   Light Drizzle
1:54 PM 69.1 °F 66.0 °F 90% 30.20 in 9.0 mi North 11.5 mph - 0.00 in   Light Drizzle
2:54 PM 66.0 °F 63.0 °F 90% 30.21 in 4.0 mi North 11.5 mph - 0.00 in   Overcast
3:54 PM 66.0 °F 64.0 °F 93% 30.20 in 3.0 mi NNE 8.1 mph - 0.00 in Rain Light Rain
4:54 PM 68.0 °F 64.0 °F 87% 30.19 in 10.0 mi NNE 8.1 mph - 0.00 in   Overcast
5:18 PM 68.0 °F 64.4 °F 88% 30.18 in 2.5 mi North 5.8 mph - 0.00 in Rain Light Rain
5:54 PM 68.0 °F 64.9 °F 90% 30.19 in 2.0 mi North 8.1 mph - 0.00 in Rain Light Rain
6:54 PM 66.9 °F 64.9 °F 93% 30.19 in 2.0 mi North 4.6 mph - 0.00 in Rain Light Rain
7:30 PM 66.2 °F 64.4 °F 94% 30.19 in 1.0 mi Calm Calm - 0.01 in Rain Light Rain
7:54 PM 66.9 °F 64.9 °F 93% 30.20 in 1.0 mi Calm Calm - 0.02 in Rain Light Rain
8:19 PM 66.2 °F 64.4 °F 94% 30.20 in 2.0 mi North 6.9 mph - 0.00 in Rain Light Rain
8:54 PM 66.9 °F 64.0 °F 90% 30.22 in 2.0 mi North 5.8 mph - 0.01 in Rain Light Rain
9:54 PM 66.0 °F 64.0 °F 93% 30.23 in 2.0 mi North 4.6 mph - 0.02 in Rain Light Rain
10:25 PM 66.2 °F 64.4 °F 94% 30.22 in 3.0 mi Calm Calm - 0.00 in Rain Light Rain
10:54 PM 66.0 °F 64.0 °F 93% 30.23 in 3.0 mi Calm Calm - 0.00 in   Light Drizzle
11:45 PM 66.2 °F 64.4 °F 94% 30.21 in 6.0 mi Calm Calm - 0.00 in   Overcast
11:54 PM 66.9 °F 64.0 °F 90% 30.23 in 6.0 mi Calm Calm - 0.00 in   Overcast